Time,TemperatureF,DewpointF,PressureIn,WindDirection,WindDirectionDegrees,WindSpeedMPH,WindSpeedGustMPH,Humidity,HourlyPrecipIn,Conditions,Clouds,dailyrainin,SolarRadiationWatts/m^2,SoftwareType,DateUTC
2013-08-03 00:00:00,63.3,59.4,30.08,NW,307,0.0,0.0,87,0.00,,---,0.00,0.00,VWS V14.01,2013-08-03 04:00:00,
2013-08-03 00:01:00,63.3,59.4,30.08,NW,307,0.0,0.0,87,0.00,,---,0.00,0.00,VWS V14.01,2013-08-03 04:01:00,
2013-08-03 00:02:00,63.3,59.4,30.08,NW,307,0.0,0.0,87,0.00,,---,0.00,0.00,VWS V14.01,2013-08-03 04:02:00,
2013-08-03 00:07:00,63.2,59.3,30.08,NW,307,0.0,0.0,87,0.00,,---,0.00,0.00,VWS V14.01,2013-08-03 04:07:00,
2013-08-03 00:12:00,63.1,59.2,30.08,NW,307,0.0,0.0,87,0.00,,---,0.00,0.00,VWS V14.01,2013-08-03 04:12:00,
2013-08-03 00:17:00,63.0,59.1,30.08,NW,307,0.0,0.0,87,0.00,,---,0.00,0.00,VWS V14.01,2013-08-03 04:17:00,
2013-08-03 00:22:00,62.9,59.3,30.08,NW,307,0.0,0.0,88,0.00,,---,0.00,0.00,VWS V14.01,2013-08-03 04:22:00,
2013-08-03 00:27:00,62.8,59.2,30.08,NW,307,0.0,0.0,88,0.00,,---,0.00,0.00,VWS V14.01,2013-08-03 04:27:00,
2013-08-03 00:30:00,62.7,59.1,30.08,NW,307,0.0,0.0,88,0.00,,---,0.00,0.00,VWS V14.01,2013-08-03 04:30:00,
2013-08-03 00:32:00,62.8,59.2,30.08,NW,307,0.0,0.0,88,0.00,,---,0.00,0.00,VWS V14.01,2013-08-03 04:32:00,
2013-08-03 00:37:00,62.7,59.1,30.08,NW,307,0.0,0.0,88,0.00,,---,0.00,0.00,VWS V14.01,2013-08-03 04:37:00,
2013-08-03 00:42:00,62.7,59.1,30.08,NW,307,0.0,0.0,88,0.00,,---,0.00,0.00,VWS V14.01,2013-08-03 04:42:00,
2013-08-03 00:47:00,62.7,59.4,30.08,NW,307,0.0,0.0,89,0.00,,---,0.00,0.00,VWS V14.01,2013-08-03 04:47:00,
2013-08-03 00:52:00,62.7,59.4,30.08,NW,307,0.0,0.0,89,0.00,,---,0.00,0.00,VWS V14.01,2013-08-03 04:52:00,
2013-08-03 00:57:00,62.7,59.7,30.07,NW,307,0.0,0.0,90,0.00,,---,0.00,0.00,VWS V14.01,2013-08-03 04:57:00,
2013-08-03 01:00:00,62.7,59.7,30.08,NW,307,0.0,0.0,90,0.00,,---,0.00,0.00,VWS V14.01,2013-08-03 05:00:00,
2013-08-03 01:02:00,62.7,59.7,30.07,NW,307,0.0,0.0,90,0.00,,---,0.00,0.00,VWS V14.01,2013-08-03 05:02:00,
2013-08-03 01:07:00,62.7,59.7,30.08,NW,307,0.0,0.0,90,0.00,,---,0.00,0.00,VWS V14.01,2013-08-03 05:07:00,
2013-08-03 01:12:00,62.6,59.6,30.08,NW,307,0.0,0.0,90,0.00,,---,0.00,0.00,VWS V14.01,2013-08-03 05:12:00,
2013-08-03 01:18:00,62.6,59.6,30.08,NW,307,0.0,0.0,90,0.00,,---,0.00,0.00,VWS V14.01,2013-08-03 05:18:00,
2013-08-03 01:23:00,62.6,59.6,30.08,NW,307,0.0,0.0,90,0.00,,---,0.00,0.00,VWS V14.01,2013-08-03 05:23:00,
2013-08-03 01:28:00,62.6,59.6,30.07,NW,307,0.0,0.0,90,0.00,,---,0.00,0.00,VWS V14.01,2013-08-03 05:28:00,
2013-08-03 01:30:00,62.5,59.5,30.07,NW,307,0.0,0.0,90,0.00,,---,0.00,0.00,VWS V14.01,2013-08-03 05:30:00,
2013-08-03 01:33:00,62.5,59.5,30.07,NW,307,0.0,0.0,90,0.00,,---,0.00,0.00,VWS V14.01,2013-08-03 05:33:00,
2013-08-03 01:38:00,62.5,59.5,30.07,NW,307,0.0,0.0,90,0.00,,---,0.00,0.00,VWS V14.01,2013-08-03 05:38:00,
2013-08-03 01:43:00,62.3,59.3,30.07,NW,307,0.0,0.0,90,0.00,,---,0.00,0.00,VWS V14.01,2013-08-03 05:43:00,
2013-08-03 01:48:00,62.3,59.6,30.07,NW,307,0.0,0.0,91,0.00,,---,0.00,0.00,VWS V14.01,2013-08-03 05:48:00,
2013-08-03 01:53:00,62.2,59.5,30.07,NW,307,0.0,0.0,91,0.00,,---,0.00,0.00,VWS V14.01,2013-08-03 05:53:00,
2013-08-03 01:58:00,62.2,59.5,30.07,NW,307,0.0,0.0,91,0.00,,---,0.00,0.00,VWS V14.01,2013-08-03 05:58:00,
2013-08-03 02:00:00,62.2,59.5,30.08,NW,307,0.0,0.0,91,0.00,,---,0.00,0.00,VWS V14.01,2013-08-03 06:00:00,
2013-08-03 02:03:00,62.2,59.5,30.07,NW,307,0.0,0.0,91,0.00,,---,0.00,0.00,VWS V14.01,2013-08-03 06:03:00,
2013-08-03 02:08:00,62.1,59.5,30.08,NW,307,0.0,0.0,91,0.00,,---,0.00,0.00,VWS V14.01,2013-08-03 06:08:00,
2013-08-03 02:13:00,62.0,59.3,30.08,NW,307,0.0,0.0,91,0.00,,---,0.00,0.00,VWS V14.01,2013-08-03 06:13:00,
2013-08-03 02:18:00,61.9,59.5,30.07,NW,307,0.0,0.0,92,0.00,,---,0.00,0.00,VWS V14.01,2013-08-03 06:18:00,
2013-08-03 02:23:00,61.9,59.5,30.07,NW,307,0.0,0.0,92,0.00,,---,0.00,0.00,VWS V14.01,2013-08-03 06:23:00,
2013-08-03 02:28:00,61.8,59.5,30.07,NW,307,0.0,0.0,92,0.00,,---,0.00,0.00,VWS V14.01,2013-08-03 06:28:00,
2013-08-03 02:30:00,61.9,59.6,30.07,NW,307,0.0,0.0,92,0.00,,---,0.00,0.00,VWS V14.01,2013-08-03 06:30:00,
2013-08-03 02:34:00,61.8,59.5,30.07,NW,307,0.0,0.0,92,0.00,,---,0.00,0.00,VWS V14.01,2013-08-03 06:34:00,
2013-08-03 02:39:00,61.8,59.5,30.07,NW,307,0.0,0.0,92,0.00,,---,0.00,0.00,VWS V14.01,2013-08-03 06:39:00,
2013-08-03 02:44:00,61.8,59.5,30.07,NW,307,0.0,0.0,92,0.00,,---,0.00,0.00,VWS V14.01,2013-08-03 06:44:00,
2013-08-03 02:49:00,61.8,59.5,30.07,NW,307,0.0,0.0,92,0.00,,---,0.00,0.00,VWS V14.01,2013-08-03 06:49:00,
2013-08-03 02:54:00,61.8,59.8,30.07,NW,307,0.0,0.0,93,0.00,,---,0.00,0.00,VWS V14.01,2013-08-03 06:54:00,
2013-08-03 02:59:00,61.8,59.8,30.07,NW,307,0.0,0.0,93,0.00,,---,0.00,0.00,VWS V14.01,2013-08-03 06:59:00,
2013-08-03 03:00:00,61.8,59.8,30.07,NW,307,0.0,0.0,93,0.00,,---,0.00,0.00,VWS V14.01,2013-08-03 07:00:00,
2013-08-03 03:04:00,61.8,59.8,30.07,NW,307,0.0,0.0,93,0.00,,---,0.00,0.00,VWS V14.01,2013-08-03 07:04:00,
2013-08-03 03:09:00,61.8,59.8,30.07,NW,307,0.0,0.0,93,0.00,,---,0.00,0.00,VWS V14.01,2013-08-03 07:09:00,
2013-08-03 03:14:00,61.9,59.9,30.07,NW,307,0.0,0.0,93,0.00,,---,0.00,0.00,VWS V14.01,2013-08-03 07:14:00,
2013-08-03 03:19:00,61.8,59.8,30.07,NW,307,0.0,0.0,93,0.00,,---,0.00,0.00,VWS V14.01,2013-08-03 07:19:00,
2013-08-03 03:24:00,61.9,59.9,30.06,NW,307,0.0,0.0,93,0.00,,---,0.00,0.00,VWS V14.01,2013-08-03 07:24:00,
2013-08-03 03:29:00,61.8,59.8,30.06,NW,307,0.0,0.0,93,0.00,,---,0.00,0.00,VWS V14.01,2013-08-03 07:29:00,
2013-08-03 03:30:00,61.8,59.8,30.06,NW,307,0.0,0.0,93,0.00,,---,0.00,0.00,VWS V14.01,2013-08-03 07:30:00,
2013-08-03 03:34:00,61.8,59.8,30.06,NW,307,0.0,0.0,93,0.00,,---,0.00,0.00,VWS V14.01,2013-08-03 07:34:00,
2013-08-03 03:39:00,61.8,59.8,30.06,NW,307,0.0,0.0,93,0.00,,---,0.00,0.00,VWS V14.01,2013-08-03 07:39:00,
2013-08-03 03:45:00,61.8,59.8,30.06,NW,307,0.0,0.0,93,0.00,,---,0.00,0.00,VWS V14.01,2013-08-03 07:45:00,
2013-08-03 03:50:00,61.7,59.7,30.06,NW,307,0.0,0.0,93,0.00,,---,0.00,0.00,VWS V14.01,2013-08-03 07:50:00,
2013-08-03 03:55:00,61.7,59.7,30.06,NW,307,0.0,0.0,93,0.00,,---,0.00,0.00,VWS V14.01,2013-08-03 07:55:00,
2013-08-03 04:00:00,61.7,59.7,30.06,NW,307,0.0,0.0,93,0.00,,---,0.00,0.00,VWS V14.01,2013-08-03 08:00:00,
2013-08-03 04:05:00,61.6,59.6,30.06,NW,307,0.0,0.0,93,0.00,,---,0.00,0.00,VWS V14.01,2013-08-03 08:05:00,
2013-08-03 04:10:00,61.6,59.6,30.06,NW,307,0.0,0.0,93,0.00,,---,0.00,0.00,VWS V14.01,2013-08-03 08:10:00,
2013-08-03 04:15:00,61.6,59.6,30.06,NW,307,0.0,0.0,93,0.00,,---,0.00,0.00,VWS V14.01,2013-08-03 08:15:00,
2013-08-03 04:20:00,61.6,59.6,30.06,NW,307,0.0,0.0,93,0.00,,---,0.00,0.00,VWS V14.01,2013-08-03 08:20:00,
2013-08-03 04:21:00,61.5,59.5,30.06,NW,307,0.0,0.0,93,0.00,,---,0.00,0.00,VWS V14.01,2013-08-03 08:21:00,
2013-08-03 04:26:00,61.5,59.5,30.06,NW,307,0.0,0.0,93,0.00,,---,0.00,0.00,VWS V14.01,2013-08-03 08:26:00,
2013-08-03 04:30:00,61.5,59.5,30.06,NW,307,0.0,0.0,93,0.00,,---,0.00,0.00,VWS V14.01,2013-08-03 08:30:00,
2013-08-03 04:31:00,61.5,59.5,30.06,NW,307,0.0,0.0,93,0.00,,---,0.00,0.00,VWS V14.01,2013-08-03 08:31:00,
2013-08-03 04:36:00,61.5,59.5,30.06,NW,307,0.0,0.0,93,0.00,,---,0.00,0.00,VWS V14.01,2013-08-03 08:36:00,
2013-08-03 04:41:00,61.5,59.5,30.06,NW,307,0.0,0.0,93,0.00,,---,0.00,0.00,VWS V14.01,2013-08-03 08:41:00,
2013-08-03 04:46:00,61.5,59.8,30.06,NW,307,0.0,0.0,94,0.00,,---,0.00,0.00,VWS V14.01,2013-08-03 08:46:00,
2013-08-03 04:52:00,61.5,59.8,30.06,NW,307,0.0,0.0,94,0.00,,---,0.00,0.00,VWS V14.01,2013-08-03 08:52:00,
2013-08-03 04:57:00,61.5,59.8,30.06,NW,307,0.0,0.0,94,0.00,,---,0.00,0.00,VWS V14.01,2013-08-03 08:57:00,
2013-08-03 05:00:00,61.5,59.8,30.06,NW,307,0.0,0.0,94,0.00,,---,0.00,0.00,VWS V14.01,2013-08-03 09:00:00,
2013-08-03 05:02:00,61.5,59.8,30.06,NW,307,0.0,0.0,94,0.00,,---,0.00,0.00,VWS V14.01,2013-08-03 09:02:00,
2013-08-03 05:07:00,61.5,59.8,30.06,NW,307,0.0,0.0,94,0.00,,---,0.00,0.00,VWS V14.01,2013-08-03 09:07:00,
2013-08-03 05:12:00,61.5,59.8,30.06,NW,307,0.0,0.0,94,0.00,,---,0.00,0.00,VWS V14.01,2013-08-03 09:12:00,
2013-08-03 05:17:00,61.5,59.8,30.06,NW,307,0.0,0.0,94,0.00,,---,0.00,0.00,VWS V14.01,2013-08-03 09:17:00,
2013-08-03 05:22:00,61.6,59.9,30.06,NW,307,0.0,0.0,94,0.00,,---,0.00,0.00,VWS V14.01,2013-08-03 09:22:00,
2013-08-03 05:27:00,61.5,59.8,30.05,NW,307,0.0,0.0,94,0.00,,---,0.00,0.00,VWS V14.01,2013-08-03 09:27:00,
2013-08-03 05:30:00,61.6,59.9,30.06,NW,307,0.0,0.0,94,0.00,,---,0.00,0.00,VWS V14.01,2013-08-03 09:30:00,
2013-08-03 05:32:00,61.6,59.9,30.06,NW,307,0.0,0.0,94,0.00,,---,0.00,0.00,VWS V14.01,2013-08-03 09:32:00,
2013-08-03 05:37:00,61.6,59.9,30.06,NW,307,0.0,0.0,94,0.00,,---,0.00,0.00,VWS V14.01,2013-08-03 09:37:00,
2013-08-03 05:42:00,61.6,59.9,30.05,NW,307,0.0,0.0,94,0.00,,---,0.00,0.00,VWS V14.01,2013-08-03 09:42:00,
2013-08-03 05:47:00,61.6,59.9,30.06,NW,307,0.0,0.0,94,0.00,,---,0.00,0.00,VWS V14.01,2013-08-03 09:47:00,
2013-08-03 05:52:00,61.6,59.9,30.06,NW,307,0.0,0.0,94,0.00,,---,0.00,0.00,VWS V14.01,2013-08-03 09:52:00,
2013-08-03 05:58:00,61.6,59.9,30.06,NW,307,0.0,0.0,94,0.00,,---,0.00,0.00,VWS V14.01,2013-08-03 09:58:00,
2013-08-03 06:00:00,61.6,59.9,30.06,NW,307,0.0,0.0,94,0.00,,---,0.00,0.00,VWS V14.01,2013-08-03 10:00:00,
2013-08-03 06:03:00,61.6,59.9,30.06,NW,307,0.0,0.0,94,0.00,,---,0.00,0.00,VWS V14.01,2013-08-03 10:03:00,
2013-08-03 06:08:00,61.7,60.0,30.06,NW,307,0.0,0.0,94,0.00,,---,0.00,0.00,VWS V14.01,2013-08-03 10:08:00,
2013-08-03 06:13:00,61.7,60.0,30.06,NW,307,0.0,0.0,94,0.00,,---,0.00,0.00,VWS V14.01,2013-08-03 10:13:00,
2013-08-03 06:18:00,61.7,60.0,30.06,NW,307,0.0,0.0,94,0.00,,---,0.00,0.00,VWS V14.01,2013-08-03 10:18:00,
2013-08-03 06:23:00,61.7,60.0,30.06,NW,307,0.0,0.0,94,0.00,,---,0.00,0.00,VWS V14.01,2013-08-03 10:23:00,
2013-08-03 06:28:00,61.7,60.0,30.06,NW,307,0.0,0.0,94,0.00,,---,0.00,0.00,VWS V14.01,2013-08-03 10:28:00,
2013-08-03 06:30:00,61.7,60.0,30.05,NW,307,0.0,0.0,94,0.00,,---,0.00,0.00,VWS V14.01,2013-08-03 10:30:00,
2013-08-03 06:33:00,61.7,60.0,30.06,NW,307,0.0,0.0,94,0.00,,---,0.00,0.00,VWS V14.01,2013-08-03 10:33:00,
2013-08-03 06:38:00,61.7,60.0,30.06,NW,307,0.0,0.0,94,0.00,,---,0.00,0.00,VWS V14.01,2013-08-03 10:38:00,
2013-08-03 06:43:00,61.8,60.1,30.06,NW,307,0.0,0.0,94,0.00,,---,0.00,0.00,VWS V14.01,2013-08-03 10:43:00,
2013-08-03 06:48:00,61.8,60.1,30.05,NW,307,0.0,0.0,94,0.00,,---,0.00,0.00,VWS V14.01,2013-08-03 10:48:00,
2013-08-03 06:53:00,61.8,60.1,30.06,NW,307,0.0,0.0,94,0.00,,---,0.00,7.00,VWS V14.01,2013-08-03 10:53:00,
2013-08-03 06:59:00,61.8,60.1,30.05,NW,307,0.0,0.0,94,0.00,,---,0.00,16.00,VWS V14.01,2013-08-03 10:59:00,
2013-08-03 07:00:00,61.8,60.1,30.05,NW,307,0.0,0.0,94,0.00,,---,0.00,23.00,VWS V14.01,2013-08-03 11:00:00,
2013-08-03 07:04:00,61.8,60.1,30.06,NW,307,0.0,0.0,94,0.00,,---,0.00,25.00,VWS V14.01,2013-08-03 11:04:00,
2013-08-03 07:09:00,61.8,60.1,30.06,NW,307,0.0,0.0,94,0.00,,---,0.00,32.00,VWS V14.01,2013-08-03 11:09:00,
2013-08-03 07:14:00,61.9,60.2,30.06,NW,307,0.0,0.0,94,0.00,,---,0.00,23.00,VWS V14.01,2013-08-03 11:14:00,
2013-08-03 07:19:00,61.9,60.2,30.05,NW,307,0.0,0.0,94,0.00,,---,0.00,21.00,VWS V14.01,2013-08-03 11:19:00,
2013-08-03 07:24:00,61.9,60.2,30.06,NW,307,0.0,0.0,94,0.00,,---,0.00,23.00,VWS V14.01,2013-08-03 11:24:00,
2013-08-03 07:29:00,62.0,60.3,30.05,NW,307,0.0,0.0,94,0.00,,---,0.00,28.00,VWS V14.01,2013-08-03 11:29:00,
2013-08-03 07:30:00,62.0,60.3,30.05,NW,307,0.0,0.0,94,0.00,,---,0.00,33.00,VWS V14.01,2013-08-03 11:30:00,
2013-08-03 07:34:00,62.0,60.3,30.05,NW,307,0.0,0.0,94,0.00,,---,0.00,35.00,VWS V14.01,2013-08-03 11:34:00,
2013-08-03 07:39:00,62.1,60.4,30.05,NW,307,0.0,0.0,94,0.00,,---,0.00,39.00,VWS V14.01,2013-08-03 11:39:00,
2013-08-03 07:44:00,62.1,60.7,30.05,NW,307,0.0,0.0,95,0.00,,---,0.00,37.00,VWS V14.01,2013-08-03 11:44:00,
2013-08-03 07:49:00,62.3,60.8,30.06,NW,307,0.0,0.0,95,0.00,,---,0.00,42.00,VWS V14.01,2013-08-03 11:49:00,
2013-08-03 07:54:00,62.4,61.0,30.06,NW,307,0.0,0.0,95,0.00,,---,0.00,42.00,VWS V14.01,2013-08-03 11:54:00,
2013-08-03 07:59:00,62.5,61.0,30.06,NW,307,0.0,0.0,95,0.00,,---,0.00,33.00,VWS V14.01,2013-08-03 11:59:00,
2013-08-03 08:00:00,62.5,61.0,30.06,NW,307,0.0,0.0,95,0.00,,---,0.00,28.00,VWS V14.01,2013-08-03 12:00:00,
2013-08-03 08:05:00,62.5,61.0,30.06,NW,307,0.0,0.0,95,0.00,,---,0.00,25.00,VWS V14.01,2013-08-03 12:05:00,
2013-08-03 08:10:00,62.7,61.2,30.06,NW,307,0.0,0.0,95,0.00,,---,0.00,28.00,VWS V14.01,2013-08-03 12:10:00,
2013-08-03 08:15:00,62.7,61.2,30.06,NW,307,0.0,0.0,95,0.00,,---,0.00,33.00,VWS V14.01,2013-08-03 12:15:00,
2013-08-03 08:20:00,62.8,61.3,30.06,NW,307,0.0,0.0,95,0.00,,---,0.00,54.00,VWS V14.01,2013-08-03 12:20:00,
2013-08-03 08:25:00,63.0,61.5,30.06,NW,307,0.0,0.0,95,0.00,,---,0.00,86.00,VWS V14.01,2013-08-03 12:25:00,
2013-08-03 08:30:00,63.1,61.7,30.06,NW,307,0.0,0.0,95,0.00,,---,0.00,97.00,VWS V14.01,2013-08-03 12:30:00,
2013-08-03 08:35:00,63.2,61.8,30.06,NW,307,0.0,0.0,95,0.00,,---,0.00,111.00,VWS V14.01,2013-08-03 12:35:00,
2013-08-03 08:40:00,63.4,62.0,30.06,NW,307,0.0,0.0,95,0.00,,---,0.00,128.00,VWS V14.01,2013-08-03 12:40:00,
2013-08-03 08:45:00,63.5,62.0,30.06,NW,307,0.0,0.0,95,0.00,,---,0.00,113.00,VWS V14.01,2013-08-03 12:45:00,
2013-08-03 08:50:00,63.8,62.6,30.06,NW,307,0.0,0.0,96,0.00,,---,0.00,95.00,VWS V14.01,2013-08-03 12:50:00,
2013-08-03 08:55:00,63.9,62.7,30.06,NW,307,0.0,0.0,96,0.00,,---,0.00,100.00,VWS V14.01,2013-08-03 12:55:00,
2013-08-03 09:00:00,64.1,62.9,30.06,NW,307,0.0,0.0,96,0.00,,---,0.00,93.00,VWS V14.01,2013-08-03 13:00:00,
2013-08-03 09:05:00,64.2,63.0,30.06,NW,307,0.0,0.0,96,0.00,,---,0.00,81.00,VWS V14.01,2013-08-03 13:05:00,
2013-08-03 09:11:00,64.4,63.2,30.06,NW,307,0.0,0.0,96,0.00,,---,0.00,95.00,VWS V14.01,2013-08-03 13:11:00,
2013-08-03 09:15:00,64.6,63.4,30.06,NW,307,0.0,0.0,96,0.00,,---,0.00,90.00,VWS V14.01,2013-08-03 13:15:00,
2013-08-03 09:21:00,64.8,63.6,30.06,NW,307,0.0,0.0,96,0.00,,---,0.00,91.00,VWS V14.01,2013-08-03 13:21:00,
2013-08-03 09:26:00,64.9,63.4,30.06,NW,307,0.0,0.0,95,0.00,,---,0.00,91.00,VWS V14.01,2013-08-03 13:26:00,
2013-08-03 09:30:00,65.1,63.9,30.06,NW,307,0.0,0.0,96,0.00,,---,0.00,123.00,VWS V14.01,2013-08-03 13:30:00,
2013-08-03 09:31:00,65.0,63.8,30.06,NW,307,0.0,0.0,96,0.00,,---,0.00,109.00,VWS V14.01,2013-08-03 13:31:00,
2013-08-03 09:36:00,65.2,64.0,30.05,NW,307,0.0,0.0,96,0.00,,---,0.00,130.00,VWS V14.01,2013-08-03 13:36:00,
2013-08-03 09:41:00,65.3,63.8,30.05,NW,307,0.0,0.0,95,0.00,,---,0.00,192.00,VWS V14.01,2013-08-03 13:41:00,
2013-08-03 09:46:00,65.5,64.0,30.05,NW,307,0.0,0.0,95,0.00,,---,0.00,264.00,VWS V14.01,2013-08-03 13:46:00,
2013-08-03 09:51:00,66.0,64.8,30.05,NW,311,0.0,0.0,96,0.00,,---,0.00,654.00,VWS V14.01,2013-08-03 13:51:00,
2013-08-03 09:56:00,66.8,65.3,30.05,South,190,0.0,1.0,95,0.00,,---,0.00,162.00,VWS V14.01,2013-08-03 13:56:00,
2013-08-03 10:00:00,67.3,65.2,30.05,South,190,0.0,1.0,93,0.00,,---,0.00,158.00,VWS V14.01,2013-08-03 14:00:00,
2013-08-03 10:01:00,67.2,65.1,30.06,South,190,0.0,1.0,93,0.00,,---,0.00,142.00,VWS V14.01,2013-08-03 14:01:00,
2013-08-03 10:07:00,67.5,65.1,30.06,South,190,0.0,0.0,92,0.00,,---,0.00,162.00,VWS V14.01,2013-08-03 14:07:00,
2013-08-03 10:12:00,67.8,65.1,30.06,South,190,0.0,0.0,91,0.00,,---,0.00,155.00,VWS V14.01,2013-08-03 14:12:00,
2013-08-03 10:17:00,68.2,65.2,30.06,South,190,0.0,0.0,90,0.00,,---,0.00,181.00,VWS V14.01,2013-08-03 14:17:00,
2013-08-03 10:22:00,68.6,65.2,30.06,South,190,0.0,0.0,89,0.00,,---,0.00,206.00,VWS V14.01,2013-08-03 14:22:00,
2013-08-03 10:27:00,69.0,65.6,30.06,South,190,0.0,0.0,89,0.00,,---,0.00,193.00,VWS V14.01,2013-08-03 14:27:00,
2013-08-03 10:30:00,69.4,65.4,30.05,SW,219,0.0,1.0,87,0.00,,---,0.00,183.00,VWS V14.01,2013-08-03 14:30:00,
2013-08-03 10:32:00,69.3,65.3,30.05,SW,219,0.0,1.0,87,0.00,,---,0.00,185.00,VWS V14.01,2013-08-03 14:32:00,
2013-08-03 10:37:00,69.5,65.5,30.06,SW,219,0.0,0.0,87,0.00,,---,0.00,236.00,VWS V14.01,2013-08-03 14:37:00,
2013-08-03 10:42:00,69.9,65.9,30.06,SW,219,0.0,0.0,87,0.00,,---,0.00,250.00,VWS V14.01,2013-08-03 14:42:00,
2013-08-03 10:47:00,70.2,65.8,30.06,West,259,0.0,0.0,86,0.00,,---,0.00,220.00,VWS V14.01,2013-08-03 14:47:00,
2013-08-03 10:52:00,70.5,65.8,30.06,West,263,0.0,0.0,85,0.00,,---,0.00,192.00,VWS V14.01,2013-08-03 14:52:00,
2013-08-03 10:57:00,70.8,65.7,30.06,West,263,0.0,0.0,84,0.00,,---,0.00,163.00,VWS V14.01,2013-08-03 14:57:00,
2013-08-03 11:00:00,71.0,65.9,30.06,West,281,0.0,0.0,84,0.00,,---,0.00,141.00,VWS V14.01,2013-08-03 15:00:00,
2013-08-03 11:02:00,70.9,65.8,30.06,West,281,0.0,0.0,84,0.00,,---,0.00,144.00,VWS V14.01,2013-08-03 15:02:00,
2013-08-03 11:07:00,71.0,65.6,30.06,West,281,0.0,0.0,83,0.00,,---,0.00,123.00,VWS V14.01,2013-08-03 15:07:00,
2013-08-03 11:12:00,71.0,65.6,30.06,West,281,0.0,0.0,83,0.00,,---,0.00,137.00,VWS V14.01,2013-08-03 15:12:00,
2013-08-03 11:17:00,71.0,65.6,30.06,West,281,0.0,0.0,83,0.00,,---,0.00,155.00,VWS V14.01,2013-08-03 15:17:00,
2013-08-03 11:22:00,71.1,65.7,30.06,West,281,0.0,0.0,83,0.00,,---,0.00,158.00,VWS V14.01,2013-08-03 15:22:00,
2013-08-03 11:27:00,71.2,66.1,30.06,West,281,0.0,0.0,84,0.00,,---,0.00,172.00,VWS V14.01,2013-08-03 15:27:00,
2013-08-03 11:30:00,71.2,66.1,30.06,West,281,0.0,0.0,84,0.00,,---,0.00,156.00,VWS V14.01,2013-08-03 15:30:00,
2013-08-03 11:32:00,71.2,66.1,30.06,West,281,0.0,0.0,84,0.00,,---,0.00,160.00,VWS V14.01,2013-08-03 15:32:00,
2013-08-03 11:38:00,71.3,66.2,30.06,WNW,294,0.0,0.0,84,0.00,,---,0.00,160.00,VWS V14.01,2013-08-03 15:38:00,
2013-08-03 11:43:00,71.3,65.9,30.06,NW,304,0.0,0.0,83,0.00,,---,0.00,181.00,VWS V14.01,2013-08-03 15:43:00,
2013-08-03 11:48:00,71.5,66.4,30.06,NW,304,0.0,1.0,84,0.00,,---,0.00,216.00,VWS V14.01,2013-08-03 15:48:00,
2013-08-03 11:53:00,71.7,66.6,30.06,SW,234,0.0,1.0,84,0.00,,---,0.00,325.00,VWS V14.01,2013-08-03 15:53:00,
2013-08-03 11:58:00,72.1,66.3,30.06,WSW,243,0.0,3.0,82,0.00,,---,0.00,315.00,VWS V14.01,2013-08-03 15:58:00,
2013-08-03 12:00:00,72.5,66.0,30.06,SSW,210,0.0,4.0,80,0.00,,---,0.00,315.00,VWS V14.01,2013-08-03 16:00:00,
2013-08-03 12:03:00,72.5,66.0,30.06,SSW,210,0.0,4.0,80,0.00,,---,0.00,315.00,VWS V14.01,2013-08-03 16:03:00,
2013-08-03 12:08:00,72.8,66.3,30.06,WNW,302,0.0,0.0,80,0.00,,---,0.00,320.00,VWS V14.01,2013-08-03 16:08:00,
2013-08-03 12:13:00,73.2,66.7,30.06,WNW,302,0.0,0.0,80,0.00,,---,0.00,313.00,VWS V14.01,2013-08-03 16:13:00,
2013-08-03 12:18:00,73.4,66.1,30.06,NNE,22,0.0,1.0,78,0.00,,---,0.00,378.00,VWS V14.01,2013-08-03 16:18:00,
2013-08-03 12:23:00,73.7,66.4,30.06,SSE,155,0.0,3.0,78,0.00,,---,0.00,396.00,VWS V14.01,2013-08-03 16:23:00,
2013-08-03 12:28:00,74.1,66.4,30.05,SSE,155,0.0,3.0,77,0.00,,---,0.00,425.00,VWS V14.01,2013-08-03 16:28:00,
2013-08-03 12:30:00,74.5,66.1,30.05,SSE,163,0.0,3.0,75,0.00,,---,0.00,392.00,VWS V14.01,2013-08-03 16:30:00,
2013-08-03 12:33:00,74.5,66.1,30.05,SSE,163,0.0,0.0,75,0.00,,---,0.00,392.00,VWS V14.01,2013-08-03 16:33:00,
2013-08-03 12:39:00,74.8,66.7,30.05,SSE,163,0.0,0.0,76,0.00,,---,0.00,376.00,VWS V14.01,2013-08-03 16:39:00,
2013-08-03 12:44:00,75.1,65.9,30.06,West,267,0.0,3.0,73,0.00,,---,0.00,348.00,VWS V14.01,2013-08-03 16:44:00,
2013-08-03 12:49:00,75.3,65.7,30.05,SW,228,0.0,3.0,72,0.00,,---,0.00,308.00,VWS V14.01,2013-08-03 16:49:00,
2013-08-03 12:54:00,75.4,66.2,30.05,SSE,157,0.0,3.0,73,0.00,,---,0.00,297.00,VWS V14.01,2013-08-03 16:54:00,
2013-08-03 12:59:00,75.5,66.2,30.05,WSW,240,0.0,3.0,73,0.00,,---,0.00,294.00,VWS V14.01,2013-08-03 16:59:00,
2013-08-03 13:00:00,75.5,66.2,30.05,WSW,240,0.0,3.0,73,0.00,,---,0.00,311.00,VWS V14.01,2013-08-03 17:00:00,
2013-08-03 13:04:00,75.5,66.6,30.05,WSW,240,0.0,0.0,74,0.00,,---,0.00,311.00,VWS V14.01,2013-08-03 17:04:00,
2013-08-03 13:09:00,75.6,66.3,30.05,SSE,150,0.0,0.0,73,0.00,,---,0.00,371.00,VWS V14.01,2013-08-03 17:09:00,
2013-08-03 13:14:00,75.8,66.1,30.04,WSW,254,0.0,2.0,72,0.00,,---,0.00,527.00,VWS V14.01,2013-08-03 17:14:00,
2013-08-03 13:19:00,76.2,66.1,30.04,SE,144,0.0,4.0,71,0.00,,---,0.00,548.00,VWS V14.01,2013-08-03 17:19:00,
2013-08-03 13:24:00,76.5,65.6,30.04,NE,49,0.0,4.0,69,0.00,,---,0.00,494.00,VWS V14.01,2013-08-03 17:24:00,
2013-08-03 13:29:00,76.7,66.2,30.04,SSE,155,3.0,5.0,70,0.00,,---,0.00,534.00,VWS V14.01,2013-08-03 17:29:00,
2013-08-03 13:30:00,76.9,66.4,30.04,NW,309,0.0,5.0,70,0.00,,---,0.00,601.00,VWS V14.01,2013-08-03 17:30:00,
2013-08-03 13:34:00,76.9,65.5,30.04,North,350,1.0,1.0,68,0.00,,---,0.00,494.00,VWS V14.01,2013-08-03 17:34:00,
2013-08-03 13:40:00,77.2,65.4,30.04,SSE,162,0.0,5.0,67,0.00,,---,0.00,543.00,VWS V14.01,2013-08-03 17:40:00,
2013-08-03 13:45:00,77.3,66.3,30.04,WSW,254,0.0,5.0,69,0.00,,---,0.00,501.00,VWS V14.01,2013-08-03 17:45:00,
2013-08-03 13:50:00,77.3,66.8,30.04,WSW,246,0.0,5.0,70,0.00,,---,0.00,360.00,VWS V14.01,2013-08-03 17:50:00,
2013-08-03 13:55:00,77.4,66.9,30.04,North,350,0.0,5.0,70,0.00,,---,0.00,464.00,VWS V14.01,2013-08-03 17:55:00,
2013-08-03 14:00:00,77.7,66.3,30.04,North,355,0.0,5.0,68,0.00,,---,0.00,517.00,VWS V14.01,2013-08-03 18:00:00,
2013-08-03 14:05:00,78.0,65.7,30.05,SSE,160,0.0,0.0,66,0.00,,---,0.00,357.00,VWS V14.01,2013-08-03 18:05:00,
2013-08-03 14:10:00,78.0,66.6,30.04,WSW,247,0.0,1.0,68,0.00,,---,0.00,1158.00,VWS V14.01,2013-08-03 18:10:00,
2013-08-03 14:15:00,78.7,68.1,30.04,NW,312,0.0,2.0,70,0.00,,---,0.00,977.00,VWS V14.01,2013-08-03 18:15:00,
2013-08-03 14:20:00,79.5,68.0,30.04,SSE,166,0.0,5.0,68,0.00,,---,0.00,960.00,VWS V14.01,2013-08-03 18:20:00,
2013-08-03 14:25:00,79.9,68.4,30.03,South,186,0.0,5.0,68,0.00,,---,0.00,835.00,VWS V14.01,2013-08-03 18:25:00,
2013-08-03 14:30:00,80.2,67.4,30.03,North,11,0.0,5.0,65,0.00,,---,0.00,914.00,VWS V14.01,2013-08-03 18:30:00,
2013-08-03 14:35:00,80.4,68.0,30.03,West,277,0.0,0.0,66,0.00,,---,0.00,926.00,VWS V14.01,2013-08-03 18:35:00,
2013-08-03 14:40:00,80.8,67.9,30.03,NW,315,0.0,5.0,65,0.00,,---,0.00,1002.00,VWS V14.01,2013-08-03 18:40:00,
2013-08-03 14:45:00,81.3,66.6,30.03,SSE,152,0.0,5.0,61,0.00,,---,0.00,967.00,VWS V14.01,2013-08-03 18:45:00,
2013-08-03 14:51:00,81.3,67.1,30.03,ENE,65,0.0,5.0,62,0.00,,---,0.00,466.00,VWS V14.01,2013-08-03 18:51:00,
2013-08-03 14:56:00,80.9,68.5,30.02,SW,232,0.0,5.0,66,0.00,,---,0.00,935.00,VWS V14.01,2013-08-03 18:56:00,
2013-08-03 15:00:00,81.0,67.2,30.03,WNW,299,0.0,5.0,63,0.00,,---,0.00,287.00,VWS V14.01,2013-08-03 19:00:00,
2013-08-03 15:01:00,80.9,68.0,30.03,WNW,296,0.0,5.0,65,0.00,,---,0.00,265.00,VWS V14.01,2013-08-03 19:01:00,
2013-08-03 15:06:00,80.9,67.6,30.03,SSE,168,0.0,3.0,64,0.00,,---,0.00,974.00,VWS V14.01,2013-08-03 19:06:00,
2013-08-03 15:11:00,80.6,67.3,30.02,South,179,0.0,4.0,64,0.00,,---,0.00,248.00,VWS V14.01,2013-08-03 19:11:00,
2013-08-03 15:16:00,80.8,67.9,30.03,SW,217,0.0,4.0,65,0.00,,---,0.00,220.00,VWS V14.01,2013-08-03 19:16:00,
2013-08-03 15:21:00,81.1,68.2,30.02,SW,217,0.0,4.0,65,0.00,,---,0.00,295.00,VWS V14.01,2013-08-03 19:21:00,
2013-08-03 15:26:00,81.0,67.7,30.03,SW,217,0.0,4.0,64,0.00,,---,0.00,190.00,VWS V14.01,2013-08-03 19:26:00,
2013-08-03 15:30:00,81.0,67.7,30.02,West,259,0.0,4.0,64,0.00,,---,0.00,274.00,VWS V14.01,2013-08-03 19:30:00,
2013-08-03 15:31:00,81.0,67.7,30.02,West,259,0.0,4.0,64,0.00,,---,0.00,221.00,VWS V14.01,2013-08-03 19:31:00,
2013-08-03 15:36:00,81.0,68.1,30.02,West,259,0.0,0.0,65,0.00,,---,0.00,220.00,VWS V14.01,2013-08-03 19:36:00,
2013-08-03 15:41:00,80.9,68.5,30.02,West,259,0.0,0.0,66,0.00,,---,0.00,214.00,VWS V14.01,2013-08-03 19:41:00,
2013-08-03 15:46:00,80.6,67.3,30.01,West,259,0.0,0.0,64,0.00,,---,0.00,863.00,VWS V14.01,2013-08-03 19:46:00,
2013-08-03 15:51:00,80.4,68.0,30.01,SW,236,0.0,1.0,66,0.00,,---,0.00,374.00,VWS V14.01,2013-08-03 19:51:00,
2013-08-03 15:57:00,80.4,68.0,30.01,SW,236,0.0,1.0,66,0.00,,---,0.00,162.00,VWS V14.01,2013-08-03 19:57:00,
2013-08-03 16:00:00,80.5,69.0,30.01,SW,236,0.0,1.0,68,0.00,,---,0.00,712.00,VWS V14.01,2013-08-03 20:00:00,
2013-08-03 16:01:00,80.4,68.0,30.01,SW,236,0.0,1.0,66,0.00,,---,0.00,809.00,VWS V14.01,2013-08-03 20:01:00,
2013-08-03 16:07:00,80.6,66.8,30.01,SW,236,0.0,1.0,63,0.00,,---,0.00,717.00,VWS V14.01,2013-08-03 20:07:00,
2013-08-03 16:12:00,81.7,67.4,30.00,SW,236,0.0,1.0,62,0.00,,---,0.00,817.00,VWS V14.01,2013-08-03 20:12:00,
2013-08-03 16:17:00,82.2,66.0,30.01,West,271,1.0,4.0,58,0.00,,---,0.00,308.00,VWS V14.01,2013-08-03 20:17:00,
2013-08-03 16:22:00,82.2,66.5,30.00,West,271,3.0,4.0,59,0.00,,---,0.00,265.00,VWS V14.01,2013-08-03 20:22:00,
2013-08-03 16:27:00,82.0,65.3,30.01,WSW,254,2.0,4.0,57,0.00,,---,0.00,831.00,VWS V14.01,2013-08-03 20:27:00,
2013-08-03 16:30:00,81.8,64.6,30.01,WNW,284,0.0,4.0,56,0.00,,---,0.00,186.00,VWS V14.01,2013-08-03 20:30:00,
2013-08-03 16:32:00,81.8,64.6,30.01,WNW,284,0.0,4.0,56,0.00,,---,0.00,200.00,VWS V14.01,2013-08-03 20:32:00,
2013-08-03 16:37:00,81.6,64.9,30.01,WNW,284,0.0,0.0,57,0.00,,---,0.00,185.00,VWS V14.01,2013-08-03 20:37:00,
2013-08-03 16:43:00,81.2,64.5,30.02,WNW,284,2.0,3.0,57,0.00,,---,0.00,209.00,VWS V14.01,2013-08-03 20:43:00,
2013-08-03 16:48:00,80.9,64.2,30.02,WNW,284,1.0,3.0,57,0.00,,---,0.00,209.00,VWS V14.01,2013-08-03 20:48:00,
2013-08-03 16:53:00,80.4,63.3,30.02,WNW,296,0.0,3.0,56,0.00,,---,0.00,176.00,VWS V14.01,2013-08-03 20:53:00,
2013-08-03 16:58:00,80.2,63.6,30.02,WNW,296,0.0,3.0,57,0.00,,---,0.00,232.00,VWS V14.01,2013-08-03 20:58:00,
2013-08-03 17:00:00,80.0,63.4,30.01,WNW,296,0.0,3.0,57,0.00,,---,0.00,313.00,VWS V14.01,2013-08-03 21:00:00,
2013-08-03 17:03:00,80.0,63.4,30.01,WNW,296,0.0,3.0,57,0.00,,---,0.00,269.00,VWS V14.01,2013-08-03 21:03:00,
2013-08-03 17:08:00,80.0,63.9,30.01,WNW,296,0.0,1.0,58,0.00,,---,0.00,322.00,VWS V14.01,2013-08-03 21:08:00,
2013-08-03 17:13:00,80.1,64.0,30.01,NW,321,0.0,3.0,58,0.00,,---,0.00,323.00,VWS V14.01,2013-08-03 21:13:00,
2013-08-03 17:18:00,80.1,63.5,30.01,WNW,302,0.0,4.0,57,0.00,,---,0.00,206.00,VWS V14.01,2013-08-03 21:18:00,
2013-08-03 17:23:00,80.0,64.4,30.01,WNW,292,0.0,4.0,59,0.00,,---,0.00,236.00,VWS V14.01,2013-08-03 21:23:00,
2013-08-03 17:28:00,80.0,64.9,30.01,WNW,292,0.0,4.0,60,0.00,,---,0.00,193.00,VWS V14.01,2013-08-03 21:28:00,
2013-08-03 17:30:00,79.8,64.7,30.01,WNW,300,0.0,4.0,60,0.00,,---,0.00,167.00,VWS V14.01,2013-08-03 21:30:00,
2013-08-03 17:33:00,79.8,64.7,30.01,WNW,300,0.0,0.0,60,0.00,,---,0.00,167.00,VWS V14.01,2013-08-03 21:33:00,
2013-08-03 17:38:00,79.7,65.1,30.02,WNW,302,0.0,1.0,61,0.00,,---,0.00,148.00,VWS V14.01,2013-08-03 21:38:00,
2013-08-03 17:44:00,79.6,65.0,30.01,WNW,302,0.0,1.0,61,0.00,,---,0.00,109.00,VWS V14.01,2013-08-03 21:44:00,
2013-08-03 17:49:00,79.1,64.0,30.01,WNW,302,0.0,4.0,60,0.00,,---,0.00,62.00,VWS V14.01,2013-08-03 21:49:00,
2013-08-03 17:54:00,78.5,64.4,30.01,WNW,302,0.0,4.0,62,0.00,,---,0.00,70.00,VWS V14.01,2013-08-03 21:54:00,
2013-08-03 17:58:00,77.9,63.8,30.01,WNW,302,0.0,4.0,62,0.00,,---,0.00,102.00,VWS V14.01,2013-08-03 21:58:00,
2013-08-03 18:00:00,77.5,64.4,30.01,WSW,238,0.0,4.0,64,0.00,,---,0.00,123.00,VWS V14.01,2013-08-03 22:00:00,
2013-08-03 18:04:00,77.5,64.4,30.01,WSW,238,0.0,0.0,64,0.00,,---,0.00,127.00,VWS V14.01,2013-08-03 22:04:00,
2013-08-03 18:09:00,77.3,64.6,30.01,WSW,238,0.0,0.0,65,0.00,,---,0.00,144.00,VWS V14.01,2013-08-03 22:09:00,
2013-08-03 18:14:00,77.4,65.6,30.00,WSW,238,0.0,0.0,67,0.00,,---,0.00,171.00,VWS V14.01,2013-08-03 22:14:00,
2013-08-03 18:19:00,77.6,67.1,30.00,WSW,238,0.0,0.0,70,0.00,,---,0.00,181.00,VWS V14.01,2013-08-03 22:19:00,
2013-08-03 18:24:00,77.6,65.3,30.00,NW,310,0.0,1.0,66,0.00,,---,0.00,95.00,VWS V14.01,2013-08-03 22:24:00,
2013-08-03 18:29:00,77.5,64.8,30.00,SW,235,0.0,3.0,65,0.00,,---,0.00,77.00,VWS V14.01,2013-08-03 22:29:00,
2013-08-03 18:30:00,77.5,65.3,30.00,WNW,283,0.0,3.0,66,0.00,,---,0.00,74.00,VWS V14.01,2013-08-03 22:30:00,
2013-08-03 18:34:00,77.5,65.7,30.00,NW,305,0.0,1.0,67,0.00,,---,0.00,74.00,VWS V14.01,2013-08-03 22:34:00,
2013-08-03 18:39:00,77.4,65.2,30.00,NW,304,0.0,1.0,66,0.00,,---,0.00,69.00,VWS V14.01,2013-08-03 22:39:00,
2013-08-03 18:44:00,77.3,65.1,30.00,WSW,257,0.0,3.0,66,0.00,,---,0.00,77.00,VWS V14.01,2013-08-03 22:44:00,
2013-08-03 18:49:00,77.1,65.3,30.00,WNW,292,0.0,3.0,67,0.00,,---,0.00,86.00,VWS V14.01,2013-08-03 22:49:00,
2013-08-03 18:55:00,77.0,65.6,30.00,WNW,292,0.0,3.0,68,0.00,,---,0.00,56.00,VWS V14.01,2013-08-03 22:55:00,
2013-08-03 19:00:00,76.8,65.4,30.00,WNW,292,0.0,3.0,68,0.00,,---,0.00,33.00,VWS V14.01,2013-08-03 23:00:00,
2013-08-03 19:05:00,76.6,65.3,29.99,WNW,292,0.0,0.0,68,0.00,,---,0.00,32.00,VWS V14.01,2013-08-03 23:05:00,
2013-08-03 19:09:00,76.4,65.5,30.00,WNW,292,0.0,0.0,69,0.00,,---,0.00,44.00,VWS V14.01,2013-08-03 23:09:00,
2013-08-03 19:15:00,76.3,66.2,30.00,WNW,292,0.0,0.0,71,0.00,,---,0.00,79.00,VWS V14.01,2013-08-03 23:15:00,
2013-08-03 19:20:00,76.3,67.0,30.00,WNW,292,0.0,0.0,73,0.00,,---,0.00,47.00,VWS V14.01,2013-08-03 23:20:00,
2013-08-03 19:25:00,76.2,66.1,30.00,WNW,292,0.0,0.0,71,0.00,,---,0.00,35.00,VWS V14.01,2013-08-03 23:25:00,
2013-08-03 19:30:00,76.0,66.3,30.00,WNW,292,0.0,0.0,72,0.00,,---,0.00,54.00,VWS V14.01,2013-08-03 23:30:00,
2013-08-03 19:35:00,75.9,65.8,30.01,WNW,292,0.0,0.0,71,0.00,,---,0.00,79.00,VWS V14.01,2013-08-03 23:35:00,
2013-08-03 19:40:00,75.8,66.1,30.00,WNW,292,0.0,1.0,72,0.00,,---,0.00,58.00,VWS V14.01,2013-08-03 23:40:00,
2013-08-03 19:45:00,75.8,66.9,30.00,WNW,292,0.0,1.0,74,0.00,,---,0.00,49.00,VWS V14.01,2013-08-03 23:45:00,
2013-08-03 19:50:00,75.8,66.5,30.00,WNW,292,0.0,1.0,73,0.00,,---,0.00,40.00,VWS V14.01,2013-08-03 23:50:00,
2013-08-03 19:55:00,75.6,65.5,30.00,WNW,292,0.0,1.0,71,0.00,,---,0.00,26.00,VWS V14.01,2013-08-03 23:55:00,
2013-08-03 20:00:00,75.3,65.7,30.00,WNW,292,0.0,1.0,72,0.00,,---,0.00,16.00,VWS V14.01,2013-08-04 00:00:00,
2013-08-03 20:05:00,75.1,65.9,30.00,WNW,292,0.0,0.0,73,0.00,,---,0.00,14.00,VWS V14.01,2013-08-04 00:05:00,
2013-08-03 20:10:00,74.8,65.2,30.01,WNW,292,0.0,0.0,72,0.00,,---,0.00,14.00,VWS V14.01,2013-08-04 00:10:00,
2013-08-03 20:16:00,74.6,65.4,30.01,WNW,292,0.0,0.0,73,0.00,,---,0.00,9.00,VWS V14.01,2013-08-04 00:16:00,
2013-08-03 20:20:00,74.4,65.6,30.01,WNW,292,0.0,0.0,74,0.00,,---,0.00,5.00,VWS V14.01,2013-08-04 00:20:00,
2013-08-03 20:26:00,74.2,65.4,30.01,WNW,292,0.0,0.0,74,0.00,,---,0.00,0.00,VWS V14.01,2013-08-04 00:26:00,
2013-08-03 20:30:00,73.9,65.1,30.01,WNW,292,0.0,0.0,74,0.00,,---,0.00,0.00,VWS V14.01,2013-08-04 00:30:00,
2013-08-03 20:31:00,74.0,65.6,30.01,WNW,292,0.0,0.0,75,0.00,,---,0.00,0.00,VWS V14.01,2013-08-04 00:31:00,
2013-08-03 20:36:00,73.7,65.3,30.01,WNW,292,0.0,0.0,75,0.00,,---,0.00,0.00,VWS V14.01,2013-08-04 00:36:00,
2013-08-03 20:41:00,73.6,65.9,30.01,WNW,292,0.0,0.0,77,0.00,,---,0.00,0.00,VWS V14.01,2013-08-04 00:41:00,
2013-08-03 20:46:00,73.4,65.8,30.01,WNW,292,0.0,0.0,77,0.00,,---,0.00,0.00,VWS V14.01,2013-08-04 00:46:00,
2013-08-03 20:51:00,73.1,65.8,30.01,WNW,292,0.0,0.0,78,0.00,,---,0.00,0.00,VWS V14.01,2013-08-04 00:51:00,
2013-08-03 20:56:00,72.8,65.6,30.00,WNW,292,0.0,0.0,78,0.00,,---,0.00,0.00,VWS V14.01,2013-08-04 00:56:00,
2013-08-03 21:00:00,72.2,65.0,30.01,WNW,292,0.0,0.0,78,0.00,,---,0.00,0.00,VWS V14.01,2013-08-04 01:00:00,
2013-08-03 21:02:00,72.4,65.2,30.00,WNW,292,0.0,0.0,78,0.00,,---,0.00,0.00,VWS V14.01,2013-08-04 01:02:00,
2013-08-03 21:06:00,72.1,65.2,30.01,WNW,292,0.0,0.0,79,0.00,,---,0.00,0.00,VWS V14.01,2013-08-04 01:06:00,
2013-08-03 21:12:00,71.8,65.3,30.01,WNW,292,0.0,0.0,80,0.00,,---,0.00,0.00,VWS V14.01,2013-08-04 01:12:00,
2013-08-03 21:17:00,71.4,64.9,30.01,WNW,292,0.0,0.0,80,0.00,,---,0.00,0.00,VWS V14.01,2013-08-04 01:17:00,
2013-08-03 21:22:00,71.0,65.2,30.01,WNW,292,0.0,0.0,82,0.00,,---,0.00,0.00,VWS V14.01,2013-08-04 01:22:00,
2013-08-03 21:27:00,70.6,65.2,30.01,WNW,292,0.0,0.0,83,0.00,,---,0.00,0.00,VWS V14.01,2013-08-04 01:27:00,
2013-08-03 21:30:00,70.1,64.7,30.02,WNW,292,0.0,0.0,83,0.00,,---,0.00,0.00,VWS V14.01,2013-08-04 01:30:00,
2013-08-03 21:32:00,70.1,64.7,30.02,WNW,292,0.0,0.0,83,0.00,,---,0.00,0.00,VWS V14.01,2013-08-04 01:32:00,
2013-08-03 21:37:00,69.9,64.5,30.02,WNW,292,0.0,0.0,83,0.00,,---,0.00,0.00,VWS V14.01,2013-08-04 01:37:00,
2013-08-03 21:42:00,69.7,64.7,30.03,WNW,292,0.0,0.0,84,0.00,,---,0.00,0.00,VWS V14.01,2013-08-04 01:42:00,
2013-08-03 21:47:00,69.4,64.4,30.02,WNW,292,0.0,0.0,84,0.00,,---,0.00,0.00,VWS V14.01,2013-08-04 01:47:00,
2013-08-03 21:52:00,69.2,64.2,30.02,WNW,292,0.0,0.0,84,0.00,,---,0.00,0.00,VWS V14.01,2013-08-04 01:52:00,
2013-08-03 21:57:00,69.0,64.3,30.02,WNW,292,0.0,0.0,85,0.00,,---,0.00,0.00,VWS V14.01,2013-08-04 01:57:00,
2013-08-03 22:00:00,68.8,64.1,30.02,WNW,292,0.0,0.0,85,0.00,,---,0.00,0.00,VWS V14.01,2013-08-04 02:00:00,
2013-08-03 22:02:00,68.9,64.2,30.02,WNW,292,0.0,0.0,85,0.00,,---,0.00,0.00,VWS V14.01,2013-08-04 02:02:00,
2013-08-03 22:07:00,68.8,64.1,30.02,WNW,292,0.0,0.0,85,0.00,,---,0.00,0.00,VWS V14.01,2013-08-04 02:07:00,
2013-08-03 22:12:00,68.7,64.3,30.02,WNW,292,0.0,0.0,86,0.00,,---,0.00,0.00,VWS V14.01,2013-08-04 02:12:00,
2013-08-03 22:17:00,68.5,64.2,30.02,WNW,292,0.0,0.0,86,0.00,,---,0.00,0.00,VWS V14.01,2013-08-04 02:17:00,
2013-08-03 22:22:00,68.5,64.2,30.02,WNW,292,0.0,0.0,86,0.00,,---,0.00,0.00,VWS V14.01,2013-08-04 02:22:00,
2013-08-03 22:28:00,68.3,64.3,30.02,WNW,292,0.0,0.0,87,0.00,,---,0.00,0.00,VWS V14.01,2013-08-04 02:28:00,
2013-08-03 22:30:00,68.2,64.2,30.02,WNW,292,0.0,0.0,87,0.00,,---,0.00,0.00,VWS V14.01,2013-08-04 02:30:00,
2013-08-03 22:33:00,68.2,64.2,30.02,WNW,292,0.0,0.0,87,0.00,,---,0.00,0.00,VWS V14.01,2013-08-04 02:33:00,
2013-08-03 22:38:00,68.1,64.1,30.02,WNW,292,0.0,0.0,87,0.00,,---,0.00,0.00,VWS V14.01,2013-08-04 02:38:00,
2013-08-03 22:43:00,68.0,64.3,30.01,WNW,292,0.0,0.0,88,0.00,,---,0.00,0.00,VWS V14.01,2013-08-04 02:43:00,
2013-08-03 22:48:00,67.9,64.2,30.01,WNW,292,0.0,0.0,88,0.00,,---,0.00,0.00,VWS V14.01,2013-08-04 02:48:00,
2013-08-03 22:53:00,67.8,64.1,30.01,WNW,292,0.0,0.0,88,0.00,,---,0.00,0.00,VWS V14.01,2013-08-04 02:53:00,
2013-08-03 22:58:00,67.7,64.0,30.02,WNW,292,0.0,0.0,88,0.00,,---,0.00,0.00,VWS V14.01,2013-08-04 02:58:00,
2013-08-03 23:00:00,67.6,63.9,30.01,WNW,292,0.0,0.0,88,0.00,,---,0.00,0.00,VWS V14.01,2013-08-04 03:00:00,
2013-08-03 23:03:00,67.6,63.9,30.01,WNW,292,0.0,0.0,88,0.00,,---,0.00,0.00,VWS V14.01,2013-08-04 03:03:00,
2013-08-03 23:08:00,67.5,63.8,30.02,WNW,292,0.0,0.0,88,0.00,,---,0.00,0.00,VWS V14.01,2013-08-04 03:08:00,
2013-08-03 23:13:00,67.4,64.1,30.02,WNW,292,0.0,0.0,89,0.00,,---,0.00,0.00,VWS V14.01,2013-08-04 03:13:00,
2013-08-03 23:18:00,67.3,64.0,30.02,WNW,292,0.0,0.0,89,0.00,,---,0.00,0.00,VWS V14.01,2013-08-04 03:18:00,
2013-08-03 23:19:00,67.3,64.0,30.02,WNW,292,0.0,0.0,89,0.00,,---,0.00,0.00,VWS V14.01,2013-08-04 03:19:00,
2013-08-03 23:24:00,67.2,63.8,30.02,WNW,292,0.0,0.0,89,0.00,,---,0.00,0.00,VWS V14.01,2013-08-04 03:24:00,
2013-08-03 23:29:00,67.1,63.8,30.02,WNW,292,0.0,0.0,89,0.00,,---,0.00,0.00,VWS V14.01,2013-08-04 03:29:00,
2013-08-03 23:30:00,67.1,64.1,30.02,WNW,292,0.0,0.0,90,0.00,,---,0.00,0.00,VWS V14.01,2013-08-04 03:30:00,
2013-08-03 23:34:00,67.1,64.1,30.02,WNW,292,0.0,0.0,90,0.00,,---,0.00,0.00,VWS V14.01,2013-08-04 03:34:00,
2013-08-03 23:39:00,67.2,64.2,30.03,WNW,292,0.0,0.0,90,0.00,,---,0.00,0.00,VWS V14.01,2013-08-04 03:39:00,
2013-08-03 23:44:00,67.2,64.2,30.02,WNW,292,0.0,0.0,90,0.00,,---,0.00,0.00,VWS V14.01,2013-08-04 03:44:00,
2013-08-03 23:49:00,67.2,64.2,30.02,WNW,292,0.0,0.0,90,0.00,,---,0.00,0.00,VWS V14.01,2013-08-04 03:49:00,
2013-08-03 23:54:00,67.2,64.2,30.02,WNW,292,0.0,0.0,90,0.00,,---,0.00,0.00,VWS V14.01,2013-08-04 03:54:00,
2013-08-03 23:59:00,67.2,64.2,30.02,WNW,292,0.0,0.0,90,0.00,,---,0.00,0.00,VWS V14.01,2013-08-04 03:59:00,